EW1682 Weather Reports


time (UTC)temp
F
wind
direction
speed
knots
gust
knots
rain 1hr
in
rain 24hr
in
rain mn
in
humidity
%
barometer
mb
20260504213715 74 191 2.6 7.0 0.00 0.00 0.00 38 1021.3
20260504212719 74 207 2.6 7.0 0.00 0.00 0.00 35 1021.3
20260504210712 74 218 1.7 6.1 0.00 0.00 0.00 29 1021.3
20260504210213 74 220 1.7 4.3 0.00 0.00 0.00 29 1021.3
20260504203716 74 218 1.7 5.2 0.00 0.00 0.00 29 1021.3
20260504202221 74 222 2.6 5.2 0.00 0.00 0.00 28 1021.3
20260504192218 76 244 1.7 4.3 0.00 0.00 0.00 27 1021.3
20260504190207 76 204 1.7 4.3 0.00 0.00 0.00 27 1021.3
20260504180209 75 238 1.7 5.2 0.00 0.00 0.00 29 1021.3
20260504175707 75 229 1.7 5.2 0.00 0.00 0.00 29 1021.3
20260504173706 74 239 2.6 4.3 0.00 0.00 0.00 29 1021.3
20260504150209 67 206 1.7 4.3 0.00 0.00 0.00 39 1021.3
20260504140206 65 225 4.3 8.7 0.00 0.00 0.00 40 1021.3
20260504120206 51 200 1.7 4.3 0.00 0.00 0.00 72 1021.3
20260504100217 46 202 1.7 2.6 0.00 0.00 0.00 70 1021.3
20260504080718 45 226 0.0 0.0 0.00 0.00 0.00 64 1021.3
20260504080208 45 226 0.0 0.0 0.00 0.00 0.00 64 1021.3
20260504070210 45 227 0.0 0.0 0.00 0.00 0.00 61 1021.3
20260504060207 46 219 1.7 1.7 0.00 0.00 0.00 58 1021.3
20260504050207 47 185 0.0 0.9 0.00 0.00 0.00 57 1021.3
20260504045221 46 182 0.0 0.0 0.00 0.00 0.00 57 1021.3
20260504040206 48 223 0.0 0.0 0.00 0.00 0.00 55 1021.3
20260504033716 48 223 0.0 0.0 0.00 0.00 0.00 54 1021.3
20260504032208 48 245 0.0 0.0 0.00 0.00 0.00 54 1021.3
20260504030208 47 242 0.0 1.7 0.00 0.00 0.00 55 1021.3
20260504020722 47 246 0.0 0.0 0.00 0.01 0.00 55 1021.3
20260504020208 47 246 0.0 0.0 0.00 0.01 0.00 55 1021.3
20260504015209 48 246 0.0 0.0 0.00 0.01 0.00 55 1021.3
20260504011717 50 246 0.0 0.0 0.00 0.01 0.00 51 1021.3
20260504010206 51 246 0.0 0.0 0.00 0.01 0.00 46 1021.3
20260504005709 52 246 0.0 0.0 0.00 0.01 0.00 45 1021.3
20260504004208 53 246 0.0 0.0 0.00 0.01 0.00 44 1021.3
20260504001719 56 246 0.0 0.0 0.00 0.01 0.00 38 1021.3
20260504001207 56 246 0.0 0.0 0.00 0.01 0.00 37 1021.3
20260504000211 56 246 0.0 0.0 0.00 0.01 0.00 37 1021.3
20260503234706 57 246 0.0 0.9 0.00 0.01 0.00 34 1021.3
20260503232218 58 238 0.9 2.6 0.00 0.01 0.00 31 1021.3
20260503230206 59 197 1.7 2.6 0.00 0.01 0.00 31 1021.3
20260503225718 59 228 1.7 2.6 0.00 0.01 0.00 31 1021.3
20260503225207 59 277 1.7 2.6 0.00 0.01 0.00 30 1021.3
20260503224709 59 270 1.7 2.6 0.00 0.01 0.00 30 1021.3
20260503224206 59 268 1.7 7.8 0.00 0.01 0.00 31 1021.3
20260503222723 59 265 4.3 7.8 0.00 0.01 0.00 30 1021.3
20260503220206 59 248 3.5 7.0 0.00 0.01 0.00 29 1021.3
20260503215207 59 240 3.5 7.0 0.00 0.01 0.00 30 1021.3